| time (UTC) | temp C | wind direction | speed KPH | gust KPH | rain 1hr cm | rain 24hr cm | rain mn cm | humidity % | barometer mb |
| 20260509030639 | 6 | 46 | 0.0 | 0.0 | 0.00 | 0.00 | 0.00 | 86 | 1017.8 |
| 20260509025140 | 6 | 46 | 0.0 | 0.0 | 0.00 | 0.00 | 0.00 | 86 | 1017.6 |
| 20260509023634 | 6 | 46 | 0.0 | 0.0 | 0.00 | 0.00 | 0.00 | 86 | 1017.7 |
| 20260509022134 | 7 | 46 | 0.0 | 0.0 | 0.00 | 0.00 | 0.00 | 85 | 1017.6 |
| 20260509020635 | 7 | 46 | 0.0 | 0.0 | 0.00 | 0.00 | 0.00 | 85 | 1017.5 |
| 20260509015133 | 7 | 46 | 0.0 | 0.0 | 0.00 | 0.00 | 0.00 | 85 | 1017.3 |
| 20260509013633 | 7 | 46 | 0.0 | 0.0 | 0.00 | 0.00 | 0.00 | 84 | 1017.2 |
| 20260509010630 | 7 | 46 | 0.0 | 0.0 | 0.00 | 0.00 | 0.00 | 83 | 1017.4 |
| 20260509005129 | 8 | 46 | 0.0 | 0.0 | 0.00 | 0.00 | 0.00 | 83 | 1017.5 |
| 20260509003634 | 8 | 46 | 0.0 | 0.0 | 0.00 | 0.00 | 0.00 | 83 | 1017.5 |
| 20260509002128 | 8 | 46 | 0.0 | 0.0 | 0.00 | 0.00 | 0.00 | 83 | 1017.5 |
| 20260508235129 | 8 | 46 | 0.0 | 1.6 | 0.00 | 0.00 | 0.00 | 81 | 1017.5 |
| 20260508232131 | 9 | 46 | 0.0 | 0.0 | 0.00 | 0.00 | 0.00 | 79 | 1017.7 |
| 20260508230631 | 10 | 46 | 0.0 | 0.0 | 0.00 | 0.00 | 0.00 | 78 | 1017.8 |
| 20260508223631 | 11 | 46 | 0.0 | 0.0 | 0.00 | 0.00 | 0.00 | 75 | 1017.7 |
| 20260508220631 | 12 | 46 | 0.0 | 0.0 | 0.00 | 0.00 | 0.00 | 72 | 1017.8 |
| 20260508215132 | 12 | 46 | 0.0 | 1.6 | 0.00 | 0.00 | 0.00 | 70 | 1017.9 |
| 20260508213629 | 12 | 47 | 0.0 | 4.8 | 0.00 | 0.00 | 0.00 | 70 | 1017.9 |
| 20260508212129 | 13 | 55 | 0.0 | 4.8 | 0.00 | 0.00 | 0.00 | 69 | 1017.7 |
| 20260508205129 | 13 | 69 | 3.2 | 9.7 | 0.00 | 0.00 | 0.00 | 68 | 1017.8 |
| 20260508203630 | 13 | 35 | 3.2 | 8.0 | 0.00 | 0.00 | 0.00 | 67 | 1017.8 |
| 20260508202129 | 14 | 60 | 3.2 | 8.0 | 0.00 | 0.00 | 0.00 | 66 | 1017.5 |
| 20260508200637 | 14 | 54 | 3.2 | 4.8 | 0.00 | 0.00 | 0.00 | 66 | 1017.5 |
| 20260508195129 | 15 | 56 | 1.6 | 4.8 | 0.00 | 0.00 | 0.00 | 65 | 1017.3 |
| 20260508193631 | 15 | 39 | 1.6 | 6.4 | 0.00 | 0.00 | 0.00 | 63 | 1017.2 |
| 20260508192130 | 15 | 56 | 1.6 | 6.4 | 0.00 | 0.00 | 0.00 | 62 | 1017.0 |
| 20260508190629 | 16 | 38 | 3.2 | 8.0 | 0.00 | 0.00 | 0.00 | 61 | 1016.9 |
| 20260508183628 | 16 | 61 | 4.8 | 14.5 | 0.00 | 0.00 | 0.00 | 59 | 1016.5 |
| 20260508182127 | 17 | 55 | 4.8 | 12.9 | 0.00 | 0.00 | 0.00 | 58 | 1016.4 |
| 20260508180633 | 17 | 40 | 4.8 | 16.1 | 0.00 | 0.00 | 0.00 | 58 | 1016.3 |
| 20260508175126 | 17 | 47 | 6.4 | 14.5 | 0.00 | 0.00 | 0.00 | 57 | 1016.2 |
| 20260508173626 | 17 | 82 | 4.8 | 14.5 | 0.00 | 0.00 | 0.00 | 57 | 1016.1 |
| 20260508172120 | 17 | 43 | 4.8 | 14.5 | 0.00 | 0.00 | 0.00 | 57 | 1015.9 |
| 20260508170622 | 17 | 40 | 4.8 | 9.7 | 0.00 | 0.00 | 0.00 | 57 | 1015.7 |
| 20260508165123 | 17 | 170 | 4.8 | 12.9 | 0.00 | 0.00 | 0.00 | 56 | 1015.7 |
| 20260508163626 | 18 | 12 | 6.4 | 14.5 | 0.00 | 0.00 | 0.00 | 56 | 1015.6 |
| 20260508162132 | 18 | 49 | 6.4 | 14.5 | 0.00 | 0.00 | 0.00 | 55 | 1015.7 |
| 20260508160621 | 18 | 57 | 6.4 | 12.9 | 0.00 | 0.00 | 0.00 | 55 | 1015.7 |
| 20260508153621 | 18 | 88 | 4.8 | 12.9 | 0.00 | 0.00 | 0.00 | 53 | 1015.6 |
| 20260508152122 | 20 | 36 | 4.8 | 16.1 | 0.00 | 0.00 | 0.00 | 53 | 1015.6 |
| 20260508150621 | 19 | 121 | 6.4 | 17.7 | 0.00 | 0.00 | 0.00 | 55 | 1015.8 |
| 20260508145119 | 19 | 90 | 6.4 | 16.1 | 0.00 | 0.00 | 0.00 | 54 | 1016.1 |
| 20260508143623 | 19 | 240 | 3.2 | 12.9 | 0.00 | 0.00 | 0.00 | 54 | 1016.3 |
| 20260508142119 | 20 | 39 | 4.8 | 12.9 | 0.00 | 0.00 | 0.00 | 57 | 1016.3 |
| 20260508140619 | 20 | 155 | 4.8 | 19.3 | 0.00 | 0.00 | 0.00 | 54 | 1016.2 |
| 20260508135120 | 20 | 74 | 3.2 | 11.3 | 0.00 | 0.00 | 0.00 | 56 | 1016.2 |
| 20260508133620 | 18 | 38 | 6.4 | 17.7 | 0.00 | 0.00 | 0.00 | 57 | 1016.5 |
| 20260508132118 | 20 | 178 | 3.2 | 14.5 | 0.00 | 0.00 | 0.00 | 56 | 1016.5 |
| 20260508130620 | 18 | 86 | 6.4 | 17.7 | 0.00 | 0.00 | 0.00 | 58 | 1016.7 |
| 20260508125117 | 20 | 38 | 4.8 | 12.9 | 0.00 | 0.00 | 0.00 | 54 | 1016.7 |
| 20260508123619 | 19 | 38 | 3.2 | 11.3 | 0.00 | 0.00 | 0.00 | 60 | 1016.8 |
| 20260508122117 | 19 | 88 | 4.8 | 17.7 | 0.00 | 0.00 | 0.00 | 56 | 1016.8 |
| 20260508120617 | 19 | 273 | 3.2 | 16.1 | 0.00 | 0.00 | 0.00 | 59 | 1016.7 |
| 20260508115117 | 18 | 15 | 4.8 | 16.1 | 0.00 | 0.00 | 0.00 | 60 | 1016.7 |
| 20260508113619 | 19 | 61 | 4.8 | 19.3 | 0.00 | 0.00 | 0.00 | 56 | 1016.9 |
| 20260508112117 | 18 | 106 | 4.8 | 12.9 | 0.00 | 0.00 | 0.00 | 59 | 1017.1 |
| 20260508110618 | 18 | 76 | 3.2 | 14.5 | 0.00 | 0.00 | 0.00 | 61 | 1017.1 |
| 20260508105119 | 18 | 116 | 4.8 | 17.7 | 0.00 | 0.00 | 0.00 | 62 | 1017.2 |
| 20260508103614 | 17 | 59 | 4.8 | 14.5 | 0.00 | 0.00 | 0.00 | 64 | 1017.3 |
| 20260508100614 | 16 | 192 | 3.2 | 8.0 | 0.00 | 0.00 | 0.00 | 70 | 1017.5 |
| 20260508095114 | 15 | 41 | 1.6 | 9.7 | 0.00 | 0.00 | 0.00 | 72 | 1017.5 |
| 20260508093614 | 14 | 84 | 3.2 | 12.9 | 0.00 | 0.00 | 0.00 | 75 | 1017.6 |
| 20260508092114 | 13 | 72 | 3.2 | 11.3 | 0.00 | 0.00 | 0.00 | 77 | 1017.6 |
| 20260508090617 | 13 | 15 | 3.2 | 8.0 | 0.00 | 0.00 | 0.00 | 79 | 1017.6 |
| 20260508083614 | 12 | 52 | 1.6 | 6.4 | 0.00 | 0.00 | 0.00 | 83 | 1017.6 |
| 20260508082115 | 12 | 53 | 3.2 | 9.7 | 0.00 | 0.00 | 0.00 | 82 | 1017.6 |
| 20260508080610 | 12 | 253 | 1.6 | 9.7 | 0.00 | 0.00 | 0.00 | 85 | 1017.6 |
| 20260508075109 | 11 | 295 | 1.6 | 6.4 | 0.00 | 0.00 | 0.00 | 89 | 1017.6 |
| 20260508073609 | 11 | 211 | 1.6 | 4.8 | 0.00 | 0.00 | 0.00 | 91 | 1017.6 |
| 20260508071830 | 10 | 52 | 1.6 | 8.0 | 0.00 | 0.00 | 0.00 | 95 | 1017.5 |
| 20260508065108 | 9 | 228 | 1.6 | 9.7 | 0.00 | 0.00 | 0.00 | 96 | 1017.6 |
| 20260508062106 | 8 | 200 | 1.6 | 4.8 | 0.00 | 0.00 | 0.00 | 96 | 1017.5 |
| 20260508060605 | 7 | 65 | 0.0 | 0.0 | 0.00 | 0.00 | 0.00 | 96 | 1017.4 |
| 20260508055105 | 7 | 140 | 0.0 | 0.0 | 0.00 | 0.00 | 0.00 | 95 | 1017.1 |
| 20260508052104 | 7 | 121 | 0.0 | 0.0 | 0.00 | 0.00 | 0.00 | 94 | 1017.0 |
| 20260508045101 | 7 | 210 | 0.0 | 3.2 | 0.00 | 0.00 | 0.00 | 93 | 1016.9 |
| 20260508042102 | 6 | 164 | 0.0 | 3.2 | 0.00 | 0.00 | 0.00 | 91 | 1016.7 |
| 20260508040600 | 6 | 164 | 0.0 | 1.6 | 0.00 | 0.00 | 0.00 | 91 | 1016.7 |
| 20260508035102 | 6 | 164 | 0.0 | 1.6 | 0.00 | 0.00 | 0.00 | 90 | 1016.7 |
| 20260508033606 | 6 | 164 | 0.0 | 4.8 | 0.00 | 0.00 | 0.00 | 90 | 1016.6 |
| 20260508032105 | 5 | 218 | 0.0 | 4.8 | 0.00 | 0.00 | 0.00 | 89 | 1016.5 |